Weather History for KWLD - November, 2013

Change the Weather History Date:

Wednesday, November 13, 2013

  Actual Average Record
Temperature  
Mean Temperature 36 °F -  
Max Temperature 50 °F 56 °F 78 °F (1999)
Min Temperature 21 °F 37 °F 17 °F (2014)
Degree Days  
Heating Degree Days 30    
Moisture  
Dew Point 19 °F    
Average Humidity 55    
Maximum Humidity 82    
Minimum Humidity 29    
Precipitation  
Precipitation 0.00 in - - ()
Sea Level Pressure  
Sea Level Pressure 30.50 in    
Wind  
Wind Speed 7 mph (South)    
Max Wind Speed 18 mph    
Max Gust Speed 26 mph    
Visibility 10 miles    
Events      
Averages and records for this station are not official NWS values.
T = Trace of Precipitation, MM = Missing Value Source: NWS Daily Summary

Daily Weather History Graph

Daily Weather History Graph

Search for Another Location

Airport or City:

Trip Planner

Search our weather history database for the weather conditions in past years. The results will help you decide how hot, cold, wet, or windy it might be!

Date:

Astronomy

Nov. 13, 2013 Rise Set
Actual Time 7:05 AM CST 5:19 PM CST
Civil Twilight 6:37 AM CST 5:46 PM CST
Nautical Twilight 6:06 AM CST 6:18 PM CST
Astronomical Twilight 5:35 AM CST 6:49 PM CST
Moon 3:03 PM CST (11/13) 3:04 AM CST (11/13)
Length of Visible Light 11h 09m
Length of Day
10h 14m
Waxing Gibbous, 85% of the Moon is Illuminated
Nov 13
Waxing Gibbous
Nov 17
Full
Nov 25
Last Quarter
Dec 2
New
Dec 9
First Quarter

Hourly Weather History & Observations

Time (CST) Temp. Windchill Dew Point Humidity Pressure Visibility Wind Dir Wind Speed Gust Speed Precip Events Conditions
12:54 AM 24.1 °F - 19.0 °F 81% 30.73 in 10.0 mi Calm Calm - N/A   Clear
1:54 AM 23.0 °F - 18.0 °F 81% 30.73 in 10.0 mi Calm Calm - N/A   Clear
2:54 AM 23.0 °F 18.4 °F 18.0 °F 81% 30.70 in 10.0 mi South 3.5 mph - N/A   Clear
3:54 AM 21.9 °F 12.5 °F 17.1 °F 82% 30.68 in 10.0 mi South 8.1 mph - N/A   Clear
4:54 AM 21.9 °F 15.7 °F 17.1 °F 82% 30.67 in 10.0 mi South 4.6 mph - N/A   Clear
5:54 AM 21.9 °F 17.2 °F 16.0 °F 78% 30.66 in 10.0 mi SSE 3.5 mph - N/A   Clear
6:54 AM 23.0 °F 14.7 °F 17.1 °F 78% 30.63 in 10.0 mi SSE 6.9 mph - N/A   Clear
7:54 AM 26.1 °F 17.6 °F 19.9 °F 78% 30.63 in 10.0 mi South 8.1 mph - N/A   Clear
8:54 AM 30.0 °F 20.5 °F 21.9 °F 72% 30.63 in 10.0 mi SSW 11.5 mph - N/A   Clear
9:54 AM 35.1 °F 25.9 °F 19.9 °F 54% 30.61 in 10.0 mi South 13.8 mph - N/A   Clear
10:54 AM 39.0 °F 29.6 °F 19.0 °F 45% 30.58 in 10.0 mi SSW 18.4 mph 23.0 mph N/A   Clear
11:54 AM 42.1 °F 35.2 °F 19.9 °F 41% 30.55 in 10.0 mi South 12.7 mph 23.0 mph N/A   Clear
12:54 PM 45.0 °F 38.9 °F 19.9 °F 37% 30.49 in 10.0 mi SSW 12.7 mph - N/A   Clear
1:54 PM 48.0 °F - 19.9 °F 33% 30.44 in 10.0 mi South 17.3 mph - N/A   Clear
2:54 PM 48.9 °F - 19.9 °F 32% 30.40 in 10.0 mi South 16.1 mph 26.5 mph N/A   Clear
3:54 PM 50.0 °F - 19.0 °F 29% 30.37 in 10.0 mi South 12.7 mph - N/A   Clear
4:54 PM 46.9 °F - 19.0 °F 33% 30.35 in 10.0 mi South 9.2 mph 19.6 mph N/A   Clear
5:54 PM 43.0 °F 37.2 °F 19.0 °F 38% 30.33 in 10.0 mi South 10.4 mph - N/A   Clear
6:54 PM 41.0 °F 34.7 °F 19.0 °F 41% 30.32 in 10.0 mi South 10.4 mph - N/A   Clear
7:54 PM 41.0 °F 34.7 °F 19.9 °F 43% 30.32 in 10.0 mi South 10.4 mph - N/A   Clear
8:54 PM 42.1 °F 34.2 °F 21.0 °F 43% 30.31 in 10.0 mi South 16.1 mph - N/A   Clear
9:54 PM 41.0 °F 33.5 °F 21.0 °F 45% 30.30 in 10.0 mi South 13.8 mph 23.0 mph N/A   Clear
10:54 PM 39.0 °F 31.4 °F 21.9 °F 50% 30.27 in 10.0 mi South 12.7 mph - N/A   Clear
11:54 PM 39.0 °F 30.3 °F 23.0 °F 53% 30.25 in 10.0 mi South 16.1 mph - N/A   Clear